Weather History for Hurghada, Egypt

Change the Weather History Date:

Tuesday, February 12, 2013

  Actual Average Record
Temperature  
Mean Temperature 64 °F -  
Max Temperature 75 °F 72 °F 86 °F (2007)
Min Temperature 53 °F 55 °F 49 °F (2014)
Degree Days  
Heating Degree Days 1    
Growing Degree Days 14 (Base 50)    
Moisture  
Dew Point 40 °F    
Average Humidity 42    
Maximum Humidity 72    
Minimum Humidity 16    
Precipitation  
Precipitation 0.00 in - - ()
Sea Level Pressure  
Sea Level Pressure 30.02 in    
Wind  
Wind Speed 13 mph ()    
Max Wind Speed 20 mph    
Max Gust Speed -    
Visibility 6.0 miles    
Events      
Averages and records for this station are not official NWS values.
T = Trace of Precipitation, MM = Missing Value Source: Averaged Metar Reports

Daily Weather History Graph

Daily Weather History Graph

Search for Another Location

Airport:

Trip Planner

Search our weather history database for the weather conditions in past years. The results will help you decide how hot, cold, wet, or windy it might be!

Date:

Astronomy

Feb. 12, 2013 Rise Set
Actual Time 6:23 AM EET 5:34 PM EET
Civil Twilight 5:59 AM EET 5:58 PM EET
Nautical Twilight 5:32 AM EET 6:25 PM EET
Astronomical Twilight 5:05 AM EET 6:53 PM EET
Moon 7:27 AM EET (2/12) 7:53 PM EET (2/12)
Length of Visible Light 11h 58m
Length of Day
11h 10m
Waxing Crescent, 6% of the Moon is Illuminated
Feb 12
Waxing Crescent
Feb 17
First Quarter
Feb 25
Full
Mar 4
Last Quarter
Mar 11
New

Hourly Weather History & Observations

Time (EET) Temp. Dew Point Humidity Pressure Visibility Wind Dir Wind Speed Gust Speed Precip Events Conditions
1:00 AM 59.0 °F 28.4 °F 31% 30.01 in - WNW 18.4 mph - N/A   Clear
2:00 AM 59 °F 29 °F 21% 30.01 in 6 mi WNW 18.4 mph - -  
2:00 AM 59.0 °F 28.4 °F 31% 30.01 in - WNW 18.4 mph - N/A   Clear
3:00 AM 57.2 °F 35.6 °F 44% 30.01 in - WNW 18.4 mph - N/A   Clear
4:00 AM 55.4 °F 37.4 °F 51% 30.01 in - NW 15.0 mph - N/A   Clear
5:00 AM 55.4 °F 42.8 °F 63% 30.04 in - NW 17.3 mph - N/A   Clear
6:00 AM 53.6 °F 44.6 °F 72% 30.04 in - WNW 13.8 mph - N/A   Clear
8:00 AM 58 °F 40 °F 40% 30.06 in 6 mi WNW 19.6 mph - -  
8:00 AM 59.0 °F 44.6 °F 59% 30.04 in - WNW 19.6 mph - N/A   Clear
9:00 AM 62.6 °F 42.8 °F 48% 30.06 in - NW 18.4 mph - N/A   Clear
10:00 AM 64.4 °F 41.0 °F 42% 30.06 in - NNW 13.8 mph - N/A   Clear
11:00 AM 69.8 °F 41.0 °F 35% 30.04 in - North 15.0 mph - N/A   Clear
12:00 PM 64.4 °F 41.0 °F 42% 30.06 in - NNW 13.8 mph - N/A   Clear
12:23 PM 64.4 °F 41.0 °F 42% 30.06 in - NNW 13.8 mph - N/A   Clear
1:00 PM 75.2 °F 41.0 °F 29% 30.01 in - North 5.8 mph - N/A   Clear
2:00 PM 75 °F 38 °F 16% 30.00 in 6 mi North 8.1 mph - -  
2:00 PM 75.2 °F 37.4 °F 25% 29.98 in - North 8.1 mph - N/A   Clear
3:00 PM 75.2 °F 37.4 °F 25% 29.98 in - NNE 6.9 mph - N/A   Clear
5:00 PM 71.6 °F 41.0 °F 33% 30.01 in - NNE 8.1 mph - N/A   Clear
6:00 PM 66.2 °F 41.0 °F 40% 30.01 in - North 5.8 mph - N/A   Clear
7:00 PM 64.4 °F 46.4 °F 52% 30.01 in - NNW 9.2 mph - N/A   Clear
8:00 PM 63 °F 46 °F 43% 30.02 in 6 mi NNW 10.4 mph - -  
8:00 PM 62.6 °F 46.4 °F 55% 30.01 in - NNW 10.4 mph - N/A   Clear
10:00 PM 59.0 °F 44.6 °F 59% 30.04 in - NNW 8.1 mph - N/A   Clear
11:00 PM 59.0 °F 41.0 °F 51% 30.04 in - NW 11.5 mph - N/A   Clear